| time (UTC) | temp C | wind direction | speed KPH | gust KPH | rain 1hr cm | rain 24hr cm | rain mn cm | humidity % | barometer mb |
| 20260505051608 | 12 | 226 | 0.0 | 1.6 | 0.00 | 0.00 | 0.00 | 73 | 1011.3 |
| 20260505051107 | 12 | 54 | 0.0 | 3.2 | 0.00 | 0.00 | 0.00 | 73 | 1011.4 |
| 20260505050604 | 12 | 284 | 0.0 | 0.0 | 0.00 | 0.00 | 0.00 | 77 | 1011.4 |
| 20260505041532 | 13 | 299 | 0.0 | 0.0 | 0.00 | 0.00 | 0.00 | 74 | 1011.3 |
| 20260505041030 | 13 | 298 | 1.6 | 1.6 | 0.00 | 0.00 | 0.00 | 73 | 1011.2 |
| 20260505040527 | 13 | 282 | 0.0 | 1.6 | 0.00 | 0.00 | 0.00 | 73 | 1011.2 |
| 20260505040024 | 14 | 281 | 1.6 | 1.6 | 0.00 | 0.00 | 0.00 | 70 | 1011.1 |
| 20260505035520 | 14 | 256 | 0.0 | 1.6 | 0.00 | 0.00 | 0.00 | 68 | 1011.2 |
| 20260505035017 | 14 | 289 | 1.6 | 3.2 | 0.00 | 0.00 | 0.00 | 68 | 1011.2 |
| 20260505034513 | 15 | 176 | 3.2 | 3.2 | 0.00 | 0.00 | 0.00 | 66 | 1011.2 |
| 20260505034010 | 15 | 158 | 3.2 | 3.2 | 0.00 | 0.00 | 0.00 | 66 | 1011.4 |
| 20260505033507 | 15 | 237 | 1.6 | 3.2 | 0.00 | 0.00 | 0.00 | 65 | 1011.3 |
| 20260505033005 | 15 | 234 | 0.0 | 0.0 | 0.00 | 0.00 | 0.00 | 66 | 1011.4 |
| 20260505032502 | 15 | 233 | 1.6 | 4.8 | 0.00 | 0.00 | 0.00 | 63 | 1011.3 |
| 20260505031959 | 15 | 160 | 1.6 | 3.2 | 0.00 | 0.00 | 0.00 | 63 | 1011.4 |
| 20260505031456 | 15 | 239 | 0.0 | 4.8 | 0.00 | 0.00 | 0.00 | 63 | 1011.4 |
| 20260505030952 | 15 | 272 | 0.0 | 3.2 | 0.00 | 0.00 | 0.00 | 65 | 1011.6 |
| 20260505030449 | 15 | 152 | 1.6 | 6.4 | 0.00 | 0.00 | 0.00 | 64 | 1011.5 |
| 20260505025944 | 15 | 152 | 3.2 | 4.8 | 0.00 | 0.00 | 0.00 | 63 | 1011.4 |
| 20260505025442 | 15 | 216 | 1.6 | 1.6 | 0.00 | 0.00 | 0.00 | 64 | 1011.5 |
| 20260505024940 | 16 | 243 | 0.0 | 6.4 | 0.00 | 0.00 | 0.00 | 63 | 1011.4 |
| 20260505024437 | 15 | 131 | 1.6 | 1.6 | 0.00 | 0.00 | 0.00 | 64 | 1011.4 |
| 20260505023934 | 15 | 156 | 0.0 | 3.2 | 0.00 | 0.00 | 0.00 | 64 | 1011.6 |
| 20260505023431 | 16 | 292 | 1.6 | 3.2 | 0.00 | 0.00 | 0.00 | 65 | 1011.7 |
| 20260505022928 | 16 | 157 | 0.0 | 1.6 | 0.00 | 0.00 | 0.00 | 62 | 1011.5 |
| 20260505022426 | 16 | 164 | 1.6 | 3.2 | 0.00 | 0.00 | 0.00 | 62 | 1011.5 |
| 20260505021923 | 16 | 188 | 3.2 | 6.4 | 0.00 | 0.00 | 0.00 | 61 | 1011.5 |
| 20260505021419 | 16 | 85 | 1.6 | 6.4 | 0.00 | 0.00 | 0.00 | 61 | 1011.6 |
| 20260505020915 | 16 | 283 | 3.2 | 4.8 | 0.00 | 0.00 | 0.00 | 61 | 1011.5 |
| 20260505020410 | 16 | 201 | 4.8 | 9.7 | 0.00 | 0.00 | 0.00 | 61 | 1011.7 |
| 20260505015908 | 16 | 124 | 0.0 | 6.4 | 0.00 | 0.00 | 0.00 | 61 | 1011.7 |
| 20260505015405 | 16 | 176 | 4.8 | 6.4 | 0.00 | 0.00 | 0.00 | 61 | 1011.8 |
| 20260505014902 | 16 | 252 | 3.2 | 11.3 | 0.00 | 0.00 | 0.00 | 60 | 1011.9 |
| 20260505014359 | 16 | 248 | 4.8 | 6.4 | 0.00 | 0.00 | 0.00 | 61 | 1011.7 |
| 20260505013856 | 17 | 203 | 4.8 | 12.9 | 0.00 | 0.00 | 0.00 | 60 | 1011.6 |
| 20260505013353 | 17 | 211 | 6.4 | 9.7 | 0.00 | 0.00 | 0.00 | 60 | 1011.8 |
| 20260505012851 | 17 | 157 | 3.2 | 12.9 | 0.00 | 0.00 | 0.00 | 61 | 1011.5 |
| 20260505012349 | 17 | 201 | 6.4 | 12.9 | 0.00 | 0.00 | 0.00 | 60 | 1011.5 |
| 20260505011844 | 16 | 161 | 4.8 | 6.4 | 0.00 | 0.00 | 0.00 | 60 | 1011.5 |
| 20260505011342 | 17 | 259 | 1.6 | 9.7 | 0.00 | 0.00 | 0.00 | 60 | 1011.5 |
| 20260505010837 | 17 | 214 | 8.0 | 9.7 | 0.00 | 0.00 | 0.00 | 60 | 1011.6 |
| 20260505010333 | 17 | 210 | 3.2 | 4.8 | 0.00 | 0.00 | 0.00 | 60 | 1011.4 |
| 20260505005830 | 17 | 273 | 0.0 | 0.0 | 0.00 | 0.00 | 0.00 | 59 | 1011.3 |
| 20260505005327 | 17 | 125 | 1.6 | 6.4 | 0.00 | 0.00 | 0.00 | 59 | 1011.1 |
| 20260505004824 | 17 | 316 | 0.0 | 3.2 | 0.00 | 0.00 | 0.00 | 60 | 1010.9 |
| 20260505004320 | 17 | 209 | 3.2 | 4.8 | 0.00 | 0.00 | 0.00 | 58 | 1011.2 |
| 20260505003818 | 17 | 222 | 0.0 | 4.8 | 0.00 | 0.00 | 0.00 | 59 | 1010.9 |
| 20260505003315 | 17 | 204 | 1.6 | 3.2 | 0.00 | 0.00 | 0.00 | 60 | 1010.9 |
| 20260505002811 | 17 | 161 | 4.8 | 9.7 | 0.00 | 0.00 | 0.00 | 59 | 1010.9 |
| 20260505002308 | 17 | 185 | 3.2 | 4.8 | 0.00 | 0.00 | 0.00 | 58 | 1011.1 |
| 20260505001807 | 17 | 193 | 3.2 | 4.8 | 0.00 | 0.00 | 0.00 | 58 | 1011.2 |
| 20260505001303 | 17 | 187 | 1.6 | 9.7 | 0.00 | 0.00 | 0.00 | 57 | 1011.3 |
| 20260505000801 | 17 | 268 | 0.0 | 9.7 | 0.00 | 0.00 | 0.00 | 57 | 1011.2 |
| 20260505000258 | 17 | 282 | 1.6 | 6.4 | 0.00 | 0.00 | 0.00 | 57 | 1011.3 |
| 20260504235754 | 18 | 260 | 1.6 | 12.9 | 0.00 | 0.00 | 0.00 | 57 | 1011.1 |
| 20260504235251 | 18 | 250 | 4.8 | 9.7 | 0.00 | 0.00 | 0.00 | 56 | 1010.7 |
| 20260504234748 | 18 | 201 | 6.4 | 9.7 | 0.00 | 0.00 | 0.00 | 56 | 1010.9 |
| 20260504234246 | 18 | 264 | 8.0 | 12.9 | 0.00 | 0.00 | 0.00 | 56 | 1010.8 |
| 20260504233742 | 18 | 201 | 11.3 | 12.9 | 0.00 | 0.00 | 0.00 | 56 | 1010.9 |
| 20260504233238 | 18 | 265 | 3.2 | 11.3 | 0.00 | 0.00 | 0.00 | 56 | 1010.7 |
| 20260504232735 | 18 | 233 | 1.6 | 14.5 | 0.00 | 0.00 | 0.00 | 57 | 1010.8 |
| 20260504232232 | 18 | 142 | 1.6 | 3.2 | 0.00 | 0.00 | 0.00 | 56 | 1010.9 |
| 20260504231729 | 18 | 291 | 1.6 | 12.9 | 0.00 | 0.00 | 0.00 | 57 | 1010.8 |
| 20260504231225 | 18 | 258 | 3.2 | 12.9 | 0.00 | 0.00 | 0.00 | 55 | 1010.7 |
| 20260504230721 | 18 | 230 | 3.2 | 12.9 | 0.00 | 0.00 | 0.00 | 55 | 1011.1 |
| 20260504230220 | 18 | 229 | 6.4 | 6.4 | 0.00 | 0.00 | 0.00 | 57 | 1010.8 |
| 20260504225718 | 18 | 208 | 12.9 | 24.1 | 0.00 | 0.00 | 0.00 | 54 | 1011.1 |
| 20260504225214 | 18 | 302 | 3.2 | 20.9 | 0.00 | 0.00 | 0.00 | 54 | 1011.1 |
| 20260504224711 | 18 | 155 | 6.4 | 11.3 | 0.00 | 0.00 | 0.00 | 54 | 1011.1 |
| 20260504224209 | 19 | 242 | 8.0 | 11.3 | 0.00 | 0.00 | 0.00 | 54 | 1011.1 |
| 20260504223705 | 19 | 256 | 9.7 | 17.7 | 0.00 | 0.00 | 0.00 | 53 | 1010.8 |
| 20260504223200 | 19 | 227 | 8.0 | 14.5 | 0.00 | 0.00 | 0.00 | 54 | 1011.1 |
| 20260504222658 | 19 | 300 | 1.6 | 9.7 | 0.00 | 0.00 | 0.00 | 54 | 1010.8 |
| 20260504222154 | 19 | 242 | 8.0 | 16.1 | 0.00 | 0.00 | 0.00 | 55 | 1010.8 |
| 20260504221652 | 19 | 255 | 1.6 | 17.7 | 0.00 | 0.00 | 0.00 | 54 | 1010.8 |
| 20260504221149 | 19 | 246 | 8.0 | 12.9 | 0.00 | 0.00 | 0.00 | 53 | 1010.8 |
| 20260504220645 | 20 | 217 | 8.0 | 20.9 | 0.00 | 0.00 | 0.00 | 53 | 1010.5 |
| 20260504220143 | 20 | 295 | 4.8 | 16.1 | 0.00 | 0.00 | 0.00 | 53 | 1010.5 |
| 20260504215639 | 20 | 227 | 8.0 | 14.5 | 0.00 | 0.00 | 0.00 | 50 | 1010.6 |
| 20260504215137 | 20 | 213 | 6.4 | 14.5 | 0.00 | 0.00 | 0.00 | 51 | 1010.7 |
| 20260504214632 | 19 | 271 | 4.8 | 12.9 | 0.00 | 0.00 | 0.00 | 51 | 1010.8 |
| 20260504214128 | 19 | 258 | 6.4 | 12.9 | 0.00 | 0.00 | 0.00 | 52 | 1010.8 |
| 20260504213624 | 20 | 259 | 20.9 | 27.4 | 0.00 | 0.00 | 0.00 | 51 | 1010.7 |
| 20260504213116 | 19 | 264 | 11.3 | 20.9 | 0.00 | 0.00 | 0.00 | 51 | 1010.5 |
| 20260504212612 | 20 | 257 | 14.5 | 22.5 | 0.00 | 0.00 | 0.00 | 51 | 1010.8 |
| 20260504212110 | 20 | 289 | 8.0 | 20.9 | 0.00 | 0.00 | 0.00 | 51 | 1010.8 |
| 20260504211607 | 19 | 136 | 12.9 | 17.7 | 0.00 | 0.00 | 0.00 | 51 | 1010.7 |
| 20260504211103 | 19 | 248 | 9.7 | 22.5 | 0.00 | 0.00 | 0.00 | 52 | 1010.7 |
| 20260504210601 | 19 | 249 | 8.0 | 11.3 | 0.00 | 0.00 | 0.00 | 53 | 1010.6 |
| 20260504210057 | 19 | 183 | 8.0 | 11.3 | 0.00 | 0.00 | 0.00 | 52 | 1010.7 |
| 20260504205555 | 19 | 272 | 9.7 | 14.5 | 0.00 | 0.00 | 0.00 | 52 | 1010.6 |
| 20260504205053 | 19 | 193 | 17.7 | 17.7 | 0.00 | 0.00 | 0.00 | 52 | 1010.6 |
| 20260504204550 | 20 | 201 | 11.3 | 22.5 | 0.00 | 0.00 | 0.00 | 51 | 1010.6 |
| 20260504204049 | 19 | 268 | 12.9 | 25.7 | 0.00 | 0.00 | 0.00 | 51 | 1010.6 |
| 20260504203547 | 20 | 275 | 16.1 | 30.6 | 0.00 | 0.00 | 0.00 | 50 | 1010.6 |
| 20260504203044 | 20 | 258 | 9.7 | 27.4 | 0.00 | 0.00 | 0.00 | 51 | 1010.6 |
| 20260504202539 | 20 | 294 | 6.4 | 22.5 | 0.00 | 0.00 | 0.00 | 51 | 1010.8 |
| 20260504202037 | 21 | 248 | 14.5 | 22.5 | 0.00 | 0.00 | 0.00 | 48 | 1010.8 |
| 20260504201533 | 20 | 332 | 14.5 | 17.7 | 0.00 | 0.00 | 0.00 | 53 | 1010.6 |
| 20260504201032 | 20 | 188 | 11.3 | 14.5 | 0.00 | 0.00 | 0.00 | 51 | 1010.6 |
| 20260504200527 | 19 | 303 | 9.7 | 14.5 | 0.00 | 0.00 | 0.00 | 54 | 1010.7 |
| 20260504200025 | 20 | 223 | 4.8 | 20.9 | 0.00 | 0.00 | 0.00 | 54 | 1010.7 |
| 20260504195520 | 19 | 186 | 9.7 | 20.9 | 0.00 | 0.00 | 0.00 | 53 | 1010.8 |
| 20260504195017 | 19 | 170 | 9.7 | 16.1 | 0.00 | 0.00 | 0.00 | 53 | 1010.7 |
| 20260504194514 | 20 | 191 | 12.9 | 20.9 | 0.00 | 0.00 | 0.00 | 53 | 1010.8 |
| 20260504194009 | 19 | 178 | 16.1 | 22.5 | 0.00 | 0.00 | 0.00 | 51 | 1010.9 |
| 20260504193506 | 19 | 200 | 11.3 | 27.4 | 0.00 | 0.00 | 0.00 | 52 | 1010.9 |
| 20260504193005 | 19 | 222 | 16.1 | 17.7 | 0.00 | 0.00 | 0.00 | 52 | 1011.3 |
| 20260504192502 | 19 | 183 | 16.1 | 20.9 | 0.00 | 0.00 | 0.00 | 52 | 1011.2 |
| 20260504192001 | 20 | 237 | 3.2 | 16.1 | 0.00 | 0.00 | 0.00 | 54 | 1011.2 |
| 20260504191458 | 20 | 257 | 20.9 | 25.7 | 0.00 | 0.00 | 0.00 | 52 | 1011.2 |
| 20260504190954 | 19 | 284 | 6.4 | 12.9 | 0.00 | 0.00 | 0.00 | 53 | 1011.2 |
| 20260504190449 | 20 | 266 | 22.5 | 27.4 | 0.00 | 0.00 | 0.00 | 52 | 1011.5 |
| 20260504185946 | 19 | 168 | 14.5 | 27.4 | 0.00 | 0.00 | 0.00 | 58 | 1011.3 |
| 20260504185444 | 19 | 274 | 16.1 | 20.9 | 0.00 | 0.00 | 0.00 | 53 | 1011.6 |
| 20260504184939 | 19 | 172 | 4.8 | 11.3 | 0.00 | 0.00 | 0.00 | 54 | 1011.4 |
| 20260504184436 | 20 | 282 | 17.7 | 22.5 | 0.00 | 0.00 | 0.00 | 53 | 1011.6 |
| 20260504183931 | 18 | 247 | 16.1 | 25.7 | 0.00 | 0.00 | 0.00 | 53 | 1011.4 |
| 20260504183429 | 19 | 278 | 8.0 | 14.5 | 0.00 | 0.00 | 0.00 | 55 | 1011.5 |
| 20260504182927 | 19 | 187 | 14.5 | 20.9 | 0.00 | 0.00 | 0.00 | 54 | 1011.5 |
| 20260504182423 | 19 | 205 | 4.8 | 20.9 | 0.00 | 0.00 | 0.00 | 55 | 1011.4 |
| 20260504181921 | 19 | 277 | 14.5 | 22.5 | 0.00 | 0.00 | 0.00 | 54 | 1011.5 |
| 20260504181418 | 18 | 287 | 9.7 | 12.9 | 0.00 | 0.00 | 0.00 | 56 | 1011.4 |
| 20260504180916 | 18 | 240 | 14.5 | 24.1 | 0.00 | 0.00 | 0.00 | 54 | 1011.6 |
| 20260504180415 | 18 | 268 | 8.0 | 24.1 | 0.00 | 0.00 | 0.00 | 55 | 1011.6 |
| 20260504175913 | 18 | 275 | 12.9 | 22.5 | 0.00 | 0.00 | 0.00 | 56 | 1011.9 |
| 20260504175409 | 18 | 200 | 14.5 | 29.0 | 0.00 | 0.00 | 0.00 | 56 | 1012.0 |
| 20260504174907 | 18 | 257 | 4.8 | 14.5 | 0.00 | 0.00 | 0.00 | 57 | 1011.8 |
| 20260504174404 | 18 | 225 | 11.3 | 20.9 | 0.00 | 0.00 | 0.00 | 55 | 1012.1 |
| 20260504173902 | 18 | 172 | 14.5 | 30.6 | 0.00 | 0.00 | 0.00 | 55 | 1012.1 |
| 20260504173358 | 18 | 187 | 8.0 | 29.0 | 0.00 | 0.00 | 0.00 | 55 | 1012.2 |
| 20260504172855 | 18 | 235 | 20.9 | 33.8 | 0.00 | 0.00 | 0.00 | 53 | 1012.2 |
| 20260504172351 | 18 | 271 | 9.7 | 22.5 | 0.00 | 0.00 | 0.00 | 57 | 1012.2 |
| 20260504171847 | 18 | 241 | 17.7 | 27.4 | 0.00 | 0.00 | 0.00 | 54 | 1012.1 |
| 20260504171345 | 17 | 271 | 8.0 | 29.0 | 0.00 | 0.00 | 0.00 | 54 | 1012.1 |
| 20260504170842 | 18 | 180 | 6.4 | 20.9 | 0.00 | 0.00 | 0.00 | 56 | 1012.2 |
| 20260504170338 | 18 | 290 | 9.7 | 17.7 | 0.00 | 0.00 | 0.00 | 54 | 1012.2 |
| 20260504160257 | 16 | 259 | 9.7 | 17.7 | 0.00 | 0.00 | 0.00 | 54 | 1013.2 |
| 20260504150722 | 15 | 273 | 6.4 | 29.0 | 0.00 | 0.00 | 0.00 | 54 | 1013.8 |
| 20260504150219 | 15 | 270 | 11.3 | 25.7 | 0.00 | 0.00 | 0.00 | 54 | 1014.1 |
| 20260504141148 | 15 | 291 | 19.3 | 22.5 | 0.00 | 0.00 | 0.00 | 51 | 1013.6 |
| 20260504140645 | 15 | 251 | 8.0 | 17.7 | 0.00 | 0.00 | 0.00 | 51 | 1013.6 |
| 20260504140140 | 15 | 303 | 12.9 | 20.9 | 0.00 | 0.00 | 0.00 | 55 | 1013.8 |
| 20260504130609 | 12 | 271 | 3.2 | 12.9 | 0.00 | 0.00 | 0.00 | 56 | 1014.0 |
| 20260504130106 | 12 | 258 | 8.0 | 16.1 | 0.00 | 0.00 | 0.00 | 54 | 1014.1 |
| 20260504110456 | 8 | 161 | 3.2 | 4.8 | 0.00 | 0.00 | 0.00 | 69 | 1014.3 |
| 20260504100418 | 7 | 186 | 1.6 | 1.6 | 0.00 | 0.00 | 0.00 | 68 | 1014.4 |
| 20260504081811 | 6 | 302 | 1.6 | 3.2 | 0.00 | 0.00 | 0.00 | 67 | 1015.2 |
| 20260504081308 | 6 | 314 | 0.0 | 0.0 | 0.00 | 0.00 | 0.00 | 70 | 1015.2 |
| 20260504080804 | 6 | 314 | 0.0 | 0.0 | 0.00 | 0.00 | 0.00 | 69 | 1015.3 |
| 20260504080301 | 6 | 314 | 0.0 | 0.0 | 0.00 | 0.00 | 0.00 | 72 | 1015.4 |
| 20260504070228 | 6 | 314 | 0.0 | 0.0 | 0.00 | 0.00 | 0.00 | 82 | 1015.4 |
| 20260504060149 | 6 | 314 | 0.0 | 0.0 | 0.00 | 0.00 | 0.00 | 67 | 1015.6 |